Terug naar catalogus

KUIPER-00008

ActiefCommunicatieLEO
NORAD 63724·PAYLOAD·🇺🇸 United States

Gelanceerd Apr 28, 2025 vanaf Cape Canaveral Space Force Station

Loading…

Volgende Passages (komende 24 uur)

TLE

VersSource: CelesTrak SupGP

Epoch: Sep 14, 2026, 23:06 UTC

1 63724C 25088A   26257.96262732  .00001190  00000+0  15574-3 0  2576
2 63724  51.9006 331.0446 0000447  93.7740 308.9827 14.79925786    17

Volg KUIPER-00008 in realtime met AllMySat

Download on the App Store